Hourly Data Report for September 04, 2016

All times are specified in Local Standard Time (LST). Add 1 hour to adjust for Daylight Saving Time where and when it is observed.

CORAL HARBOUR A
NUNAVUT

64°11'36.000" N
83°21'34.000" W
62.20 m
2301002
71915
YZS

Download Data

Hourly Data (September 2016)
Hourly Data Report for September 4, 2016
Temp Definition
°C
Dew Point Temp Definition
°C
Rel Hum Definition
%
Wind Dir Definition
10's deg

Wind Spd Definition
km/h
Visibility Definition
km
Stn Press Definition
kPa
Hmdx Definition


Wind Chill Definition


Weather Definition


TIME
00:00 Legend Double Dagger 4.3 3.4 94 10 32 9.7 99.39     Rain
01:00 Legend Double Dagger 3.8 3.1 95 9 40 6.4 99.13     Rain
02:00 Legend Double Dagger 3.2 2.3 94 9 43 6.4 98.87     Rain
03:00 Legend Double Dagger 3.5 2.8 95 8 48 12.9 98.51     Rain
04:00 Legend Double Dagger 3.9 3.3 96 8 45 6.4 98.27     Rain
05:00 Legend Double Dagger 4.2 3.5 95 8 46 6.4 98.09     Rain
06:00 Legend Double Dagger 4.1 3.1 93 7 54 12.9 97.95     Rain
07:00 Legend Double Dagger 3.7 3.0 95 7 45 6.4 97.80     Rain,Fog
08:00 Legend Double Dagger 3.5 2.5 93 7 47 12.9 97.71     Rain
09:00 Legend Double Dagger 3.8 2.5 91 6 42 24.1 97.58     Drizzle
10:00 Legend Double Dagger 3.8 2.3 90 6 35 24.1 97.57     Cloudy
11:00 Legend Double Dagger 4.0 2.5 90 6 36 24.1 97.47     LegendNANA
12:00 Legend Double Dagger 4.0 2.2 88 5 41 24.1 97.39     LegendNANA
13:00 Legend Double Dagger 4.1 2.0 86 6 40 24.1 97.34     Cloudy
14:00 Legend Double Dagger 3.9 1.8 86 7 33 24.1 97.35     LegendNANA
15:00 Legend Double Dagger 3.2 2.0 92 4 18 4.8 97.39     Rain
16:00 Legend Double Dagger 3.0 1.2 88 5 28 16.1 97.35     Rain
17:00 Legend Double Dagger 2.7 0.6 86 3 52 19.3 97.29     Rain
18:00 Legend Double Dagger 2.6 0.3 85 1 50 24.1 97.45     Rain
19:00 Legend Double Dagger 2.5 0.1 84 2 45 24.1 97.57     Rain
20:00 Legend Double Dagger 2.3 -0.3 83 36 46 24.1 97.76     Rain
21:00 Legend Double Dagger 2.4 -0.2 83 35 52 24.1 97.94     Rain
22:00 Legend Double Dagger 2.4 0.0 84 36 49 24.1 98.12     Rain
23:00 Legend Double Dagger 2.3 0.2 86 35 45 24.1 98.43     Rain

Notes on Data Quality.

Legend

  • E = Estimated
  • M = Missing
  • NA = Not Available
  • ‡ = Partner data that is not subject to review by the National Climate Archives
Date modified: